Regional Weather Roundup
Issued by NWS

Home | Current Version | Previous Version | Graphics & Text | Print | Product List | Glossary On
Versions: 1 2 3 4 5 6 7 8 9 10 11 12 13 14 15 16 17 18 19 20 21 22 23 24 25 26 27 28 29 30 31 32 33 34 35 36 37 38 39 40 41 42 43 44 45 46 47 48 49 50
000
ASUS43 KBIS 232310
RWRND

NORTH DAKOTA REGIONAL WEATHER ROUNDUP
NATIONAL WEATHER SERVICE BISMARCK ND
600 PM CDT WED AUG 23 2017

NOTE: "FAIR" INDICATES FEW OR NO CLOUDS BELOW 12,000 FEET WITH NO
SIGNIFICANT WEATHER AND/OR OBSTRUCTIONS TO VISIBILITY.


NDZ001>003-009>011-017-240000-
NORTHWEST NORTH DAKOTA

CITY           SKY/WX    TMP DP  RH WIND       PRES   REMARKS
WILLISTON      SUNNY     90  47  22 S7        29.91F
MINOT          MOSUNNY   85  53  33 N15       29.91R
MINOT AFB      SUNNY     84  51  32 NE16      29.90R
$$

NDZ018>021-031>035-040>046-240000-
SOUTHWEST NORTH DAKOTA

CITY           SKY/WX    TMP DP  RH WIND       PRES   REMARKS
BISMARCK       SUNNY     84  54  35 S8        29.95F
DICKINSON      SUNNY     86  49  27 SE3       29.95S
GARRISON         N/A     82  55  39 S6        29.93F
HETTINGER ARPT SUNNY     85  49  28 CALM      29.98S
$$

NDZ004>008-012>016-024-026-027-054-240000-
NORTHEAST NORTH DAKOTA

CITY           SKY/WX    TMP DP  RH WIND       PRES   REMARKS
GRAND FORKS    CLOUDY    69  52  54 NE21      30.03R
GRND FRKS AFB  CLOUDY    70  52  51 E18       30.03R
DEVILS LAKE    CLOUDY    73  53  49 E14       29.98S
$$

NDZ022-023-025-028>030-036>039-047>053-240000-
SOUTHEAST NORTH DAKOTA

CITY           SKY/WX    TMP DP  RH WIND       PRES   REMARKS
FARGO          SUNNY     76  50  40 S10       29.98F
JAMESTOWN      SUNNY     78  53  41 S12       29.96F
$$




USA.gov is the U.S. government's official web portal to all federal, state and local government web resources and services.